Location: Bremen
(53.0793°N, 8.8017°E)
Time: 10:58:28
(UTC+02:00)

Transit 2A Rocket - Pass Details

Date: 21 June 2024
Orbit: 582 x 910 km, 66.7° (Epoch: 19 July)

Event Time Altitude Azimuth Distance (km) Brightness Sun altitude
Rises 23:49:05 0° 251° (WSW) 3,198 8.3 -10.6°
Reaches altitude 10° 23:51:32 10° 259° (W) 2,329 7.7 -10.7°
Maximum altitude 23:56:33 38° 328° (NNW) 1,244 6.8 -11.0°
Drops below altitude 10° 00:01:59 10° 35° (NE) 2,525 8.2 -11.3°
Sets 00:04:46 0° 44° (NE) 3,500 8.8 -11.4°
